www.pogodaiklimat.ru

Погода и климат >> Архив погоды >> Россия >> Приморский край >> Дальнегорск


ПОГОДА в Дальнегорске

  • Прогноз погоды в Дальнегорске
  • Монитор погоды в Дальнегорске

АРХИВ ПОГОДЫ в Дальнегорске

Время (UTC), дата Ветер
(напр.,м/с)
 
Видим.   Явления Облачность Т
(С)
Тd
(С)
f
(%)
Тe
(С)
Тes
(С)
Комфортность P
(гПа)
Po
(гПа)
Тmin
(С)
Tmax
(С)
R
(мм)
R24
(мм)
S
(см)
03 13.07 СВ 2 н/о н/о +18.8 +14.0 74 +20 +20 1004.1 976.1
06 13.07 В 1 н/о н/о +18.5 +14.0 75 +20 +20 1004.3 976.2
09 13.07 штиль 0 н/о н/о +17.1 +14.2 83 +17 +17 1004.6 976.3 +20.5
12 13.07 В 2 н/о н/о +17.0 +12.4 74 +17 +17 1005.7 977.4
15 13.07 штиль 0 н/о н/о +15.7 +12.9 83 +15 +15 1005.9 977.5
18 13.07 штиль 0 н/о н/о +15.1 +13.5 90 +15 +15 1006.0 977.5
21 13.07 штиль 0 н/о н/о +15.1 +13.9 93 +15 +15 1006.4 977.9 +14.8
00 14.07 штиль 0 н/о н/о +17.7 +14.3 80 +18 +18 1006.1 977.9
03 14.07 В 1 н/о н/о +19.6 +14.3 71 +22 +22 комфорт 1006.0 977.9
06 14.07 В 1 н/о н/о +18.7 +14.2 75 +21 +21 комфорт 1006.3 978.2
09 14.07 В 1 н/о н/о +17.6 +13.0 74 +19 +19 1007.4 979.1 +20.0
12 14.07 штиль 0 н/о н/о +15.7 +13.6 87 +15 +15 1009.4 980.9
15 14.07 штиль 0 н/о н/о +14.7 +13.8 94 +14 +14 1010.4 981.8
18 14.07 штиль 0 н/о н/о +14.7 +13.8 94 +14 +14 1010.9 982.2
21 14.07 штиль 0 н/о н/о +14.9 +14.1 95 +15 +15 1012.1 983.5 +14.6 2
00 15.07 ЮЗ 1 н/о н/о +15.8 +14.9 94 +16 +16 1013.0 984.4
03 15.07 штиль 0 н/о н/о +17.2 +14.6 85 +17 +17 1013.7 985.2
06 15.07 В 1 н/о н/о +19.1 +14.3 74 +21 +21 комфорт 1013.7 985.4
09 15.07 В 1 н/о н/о +18.1 +14.0 77 +19 +19 1013.8 985.4 +19.3 0.3
12 15.07 штиль 0 н/о н/о +15.3 +13.5 89 +15 +15 1015.7 987.0
15 15.07 штиль 0 н/о н/о +15.0 +13.2 89 +15 +15 1016.2 987.4
18 15.07 штиль 0 н/о н/о +14.6 +13.1 91 +14 +14 1015.7 986.9
21 15.07 штиль 0 н/о н/о +15.2 +13.4 89 +15 +15 1016.3 987.5 +14.3
00 16.07 штиль 0 н/о н/о +18.3 +12.8 70 +19 +19 1016.1 987.7
03 16.07 ЮЗ 1 н/о н/о +21.8 +13.7 60 +25 +25 комфорт 1014.7 986.6
06 16.07 В 1 н/о н/о +22.6 +15.2 63 +26 +26 жарко 1013.7 985.7
09 16.07 В 1 н/о н/о +20.3 +14.8 71 +24 +24 комфорт 1013.3 985.1 +23.1
12 16.07 штиль 0 н/о н/о +16.2 +13.2 82 +16 +16 1014.5 985.9
15 16.07 штиль 0 н/о н/о +13.9 +12.8 93 +13 +13 1014.7 985.9
18 16.07 штиль 0 н/о н/о +13.5 +12.6 94 +13 +13 1014.3 985.4
21 16.07 штиль 0 н/о н/о +14.6 +13.7 94 +14 +14 1013.7 985.0 +13.3
00 17.07 В 1 н/о н/о +22.4 +15.5 65 +26 +26 жарко 1012.0 984.1
03 17.07 В 1 н/о н/о +25.4 +16.4 57 +29 +29 душно 1010.7 983.1

 

Местоположение метеостанции Дальнегорск (Приморский край, Россия): широта 43.55 долгота 135.57 высота над уровнем моря 243 м.

В архиве по умолчанию представлена погода в Дальнегорске за последнюю неделю. Архивные данные за месяц целиком и за предыдущие месяцы, начиная с января 2011 года, Вы можете получить, выбрав интересующий диапазон дат из раскрывающегося списка и нажав кнопку "Ввод!".


*Определитесь, кто Вы:
робот инопланетянин человек

Внимание! Время в таблицах - всемирное. Для получения местного времени необходимо прибавить поправку, которая равна 10 ч.

Смотрите также архив погоды в соседних городах и на ближайших метеорологических станциях:

Погода в Ольге (Приморский край, Россия) (31 км)
Погода в Богополе (Приморский край, Россия) (79 км)
Погода в Кавалерово (Приморский край, Россия) (90 км)
Погода в Рудной Пристани (Приморский край, Россия) (93 км)
Погода в Лучегорске (Приморский край, Россия) (97 км)
Погода в Лазо (Приморский край, Россия) (144 км)
Погода в Преображении (Приморский край, Россия) (153 км)
Погода в Чугуевке (Приморский край, Россия) (157 км)
Погода в Тернее (Приморский край, Россия) (181 км)
Погода в Мельничном (Приморский край, Россия) (211 км)

Пояснения к столбцам:

Ветер - указаны скорость ветра в м/с - средняя за 10 мин, порывы в срок и между сроками (в фигурных скобках) и направление, откуда дует ветер: С - северный, СВ - северо-восточный, В - восточный, ЮВ - юго-восточный, Ю - южный, ЮЗ - юго-западный, З - западный, СЗ - северо-западный.
Видимость - горизонтальная дальность видимости в метрах или километрах. При видимости от 1 до 10 км при отсутствии осадков обычно наблюдается дымка, при ухудшении видимости до 1 км и менее - туман. В сухую погоду видимость может ухудшаться дымом, пылью или мглою.
Явления - указаны атмосферные явления, наблюдавшиеся в срок или в последний час перед сроком; фигурными скобками обозначены явления, наблюдавшиеся между сроками (за 1-3 часа до срока); квадратными скобками обозначены град или гололедные отложения с указанием их диаметра в мм.
Облачность - указаны через наклонную черту общая и нижняя облачность в баллах и высота нижней границы облаков в метрах; квадратными скобками обозначены формы облаков: Ci - перистые, Cs - перисто-слоистые, Cc - перисто-кучевые, Ac - высококучевые, As - высокослоистые, Sc - слоисто-кучевые, Ns - слоисто-дождевые, Cu - кучевые, Cb - кучево-дождевые. Подробнее классификацию облаков см. в Атласе облаков (PDF).
T - Температура воздуха - температура, измеренная на высоте 2 м над землей.
Td - Температура точки росы - температура, при понижении до которой содержащийся в воздухе водяной пар достигнет насыщения.
f - Относительная влажность воздуха - влажноcть воздуха, измеренная на высоте 2 м над землей.
Te - Эффективная температура - температура, которую ощущает одетый по сезону человек в тени. Характеристика душности погоды. При расчете учитывается влияние влажности воздуха и скорости ветра на теплоощущения человека.
Tes - Эффективная температура на солнце - температура, которую ощущает человек, с поправкой на солнечный нагрев. Характеристика знойности погоды. Зависит от высоты солнца над горизонтом, облачности и скорости ветра. Ночью, в пасмурную погоду, а также при ветре 12 м/с и более поправка равна нулю.
P - Атмосферное давление - приведенное к уровню моря атмосферное давление.
Po - Атмосферное давление - измеренное на уровне метеостанции атмосферное давление.
Tmin - Минимальная температура - минимум температуры воздуха на высоте 2 м над землей.
Tmax - Максимальная температура - максимум температуры воздуха на высоте 2 м над землей.
R - Количество осадков - Количество выпавших осадков за период времени, мм. При наведении курсора мыши на число - период времени, за который выпало указанное количество осадков.
R24 - Количество осадков - Количество выпавших осадков за 24 часа, мм.
S - Снежный покров - Высота снежного покрова, см. При наведении курсора мыши на число - состояние снежного покрова и степень покрытия местности в баллах.